Location: Chacón
(10.5789°N, 66.9317°W)
Time: 21:15:20
(UTC+00:00)

GENESIS II - Pass Details

Date: 23 May 2024
Orbit: 440 x 468 km, 64.5° (Epoch: 25 June)

Event Time Altitude Azimuth Distance (km) Brightness Sun altitude
Exits shadow 08:32:59 56° 335° (NNW) 560 4.3 -21.4°
Drops below altitude 10° 08:36:06 10° 15° (NNE) 1,623 7.3 -20.7°
Sets 08:38:14 0° 18° (NNE) 2,502 8.4 -20.3°
